User: anonymous   Login
Location: SAPM � Hemmingford
(45.0500°N, 73.5833°W)
Time: 08:45:47
(UTC-05:00)
Language:

Cosmos 1674 Rocket - Orbit

View from above orbital plane
View from above orbital plane
View from above satellite
View from above satellite

Ground track
Ground track

The orbit data is extracted from the following two-line orbital elements,

1 15945U 85069B   16344.94108660 +.00000115 +00000-0 +10933-4 0  9991
2 15945 082.5270 310.2365 0019635 182.1924 177.9209 14.83898622671887
Epoch (UTC): 09 December 2016 22:35:09
Eccentricity: 0.0019635
inclination: 82.5270°
perigee height: 603 km
apogee height: 631 km
right ascension of ascending node: 310.2365°
argument of perigee: 182.1924°
revolutions per day: 14.83898622
mean anomaly at epoch: 177.9209°
orbit number at epoch: 67188

The dashed part of the orbit path shows where the satellite is in the earth's shadow,  

DLR